Volver al catálogo

STARLINK-3807

ActivoComunicacionesVLEO
NORAD 52353·PAYLOAD·🇺🇸 United States

Lanzado Apr 29, 2022 desde Cape Canaveral Space Force Station

Loading…

Próximos Pases (próximas 24 horas)

TLE

ActualizadoSource: CelesTrak SupGP

Época: Sep 15, 2026, 02:05 UTC

1 52353C 22045Y   26258.08729167 -.00035290  00000+0 -10712-2 0  2585
2 52353  53.1593  55.1752 0001153  80.9396 231.1318 15.33555221    18

Sigue STARLINK-3807 en tiempo real con AllMySat

Download on the App Store